Columbia Owens, SC

8:58 PM EST on November 16, 2019 (GMT -0500)
Columbia Owens Downtown

Weather History for KCUB - September, 2019

Change the Weather History Date:

Friday, September 20, 2019

  Actual Average Record
Temperature  
Mean Temperature 71 °F 75 °F  
Max Temperature 84 °F 85 °F 98 °F (2010)
Min Temperature 58 °F 65 °F 54 °F (2004)
Degree Days  
Heating Degree Days 0 0  
Month to date heating degree days 0 0  
Since 1 July heating degree days 0 0  
Cooling Degree Days 6 10  
Month to date cooling degree days 345 247  
Year to date cooling degree days 2468 2065  
Growing Degree Days 20 (Base 50)    
Moisture  
Dew Point 53 °F    
Average Humidity 56    
Maximum Humidity 80    
Minimum Humidity 34    
Precipitation  
Precipitation 0.00 in 0.13 in 1.91 in (2011)
Month to date precipitation 0.79 2.83  
Year to date precipitation 23.97 34.68  
Sea Level Pressure  
Sea Level Pressure 30.27 in    
Wind  
Wind Speed 3 mph (East)    
Max Wind Speed 12 mph    
Max Gust Speed 14 mph    
Visibility 10 miles    
Events      
T = Trace of Precipitation, MM = Missing Value Source: NWS Daily Summary

Daily Weather History Graph

Daily Weather History Graph

Search for Another Location

Airport or City:

Astronomy

Sep. 20, 2019 Rise Set
Actual Time 7:10 AM EDT 7:23 PM EDT
Civil Twilight 6:45 AM EDT 7:48 PM EDT
Nautical Twilight 6:16 AM EDT 8:17 PM EDT
Astronomical Twilight 5:46 AM EDT 8:47 PM EDT
Moon 11:28 PM EDT (9/20) 12:58 PM EDT (9/20)
Length of Visible Light 13h 03m
Length of Day
12h 13m
Waning Gibbous, 65% of the Moon is Illuminated
Sep 20
Waning Gibbous
Sep 21
Last Quarter
Sep 28
New
Oct 5
First Quarter
Oct 13
Full

Hourly Weather History & Observations

Time (EDT) Temp. Heat Index Dew Point Humidity Pressure Visibility Wind Dir Wind Speed Gust Speed Precip Events Conditions
12:53 AM 64.9 °F - 51.1 °F 61% 30.26 in 10.0 mi ENE 3.5 mph - N/A   Clear
1:53 AM 63.0 °F - 51.1 °F 65% 30.26 in 10.0 mi Calm Calm - N/A   Clear
2:53 AM 59.0 °F - 51.1 °F 75% 30.25 in 10.0 mi Calm Calm - N/A   Clear
3:53 AM 60.1 °F - 51.1 °F 72% 30.25 in 10.0 mi Calm Calm - N/A   Clear
4:53 AM 59.0 °F - 51.1 °F 75% 30.27 in 10.0 mi ENE 3.5 mph - N/A   Clear
5:53 AM 59.0 °F - 51.1 °F 75% 30.28 in 10.0 mi SE 4.6 mph - N/A   Clear
6:53 AM 57.9 °F - 51.1 °F 78% 30.29 in 10.0 mi Variable 3.5 mph - N/A   Clear
7:53 AM 59.0 °F - 52.0 °F 78% 30.31 in 10.0 mi Variable 3.5 mph - N/A   Clear
8:53 AM 64.0 °F - 54.0 °F 70% 30.32 in 10.0 mi East 4.6 mph - N/A   Clear
9:53 AM 70.0 °F - 54.0 °F 57% 30.32 in 10.0 mi ENE 3.5 mph - N/A   Clear
10:53 AM 75.0 °F - 54.0 °F 48% 30.32 in 10.0 mi NE 5.8 mph - N/A   Clear
11:53 AM 75.9 °F - 52.0 °F 43% 30.32 in 10.0 mi NNE 3.5 mph - N/A   Clear
12:53 PM 80.1 °F - 52.0 °F 38% 30.30 in 10.0 mi Variable 3.5 mph - N/A   Clear
1:53 PM 82.0 °F 81.2 °F 53.1 °F 37% 30.28 in 10.0 mi South 6.9 mph - N/A   Clear
2:53 PM 82.0 °F 81.2 °F 53.1 °F 37% 30.26 in 10.0 mi West 5.8 mph - N/A   Clear
3:53 PM 84.0 °F 82.6 °F 54.0 °F 35% 30.24 in 10.0 mi Variable 4.6 mph - N/A   Clear
4:53 PM 82.9 °F 81.8 °F 53.1 °F 36% 30.23 in 10.0 mi West 5.8 mph - N/A   Clear
5:53 PM 82.9 °F - 52.0 °F 34% 30.22 in 10.0 mi WSW 4.6 mph - N/A   Clear
6:53 PM 82.0 °F - 52.0 °F 35% 30.23 in 10.0 mi South 4.6 mph - N/A   Clear
7:53 PM 78.1 °F - 53.1 °F 42% 30.24 in 10.0 mi Calm Calm - N/A   Clear
8:53 PM 73.0 °F - 54.0 °F 51% 30.25 in 10.0 mi Calm Calm - N/A   Clear
9:53 PM 71.1 °F - 55.0 °F 57% 30.26 in 10.0 mi Calm Calm - N/A   Clear
10:53 PM 68.0 °F - 55.9 °F 65% 30.27 in 10.0 mi Calm Calm - N/A   Clear
11:53 PM 66.9 °F - 55.9 °F 68% 30.29 in 10.0 mi Calm Calm - N/A   Clear